When you browse on this site, cookies collect data to enhance your experience and personalize the content and advertising you see.
Visit our Privacy Policy to learn more. By continuing to use the site, you agree to this use of cookies and data.

Hourly Weather Mingachevir

Today, 28 September, Monday

Time Temperature Precipitation Wind Pressure Humidity
00:00 +19°C° 0 mm 5 mps 757 mmHg 54%
01:00 +19°C° 0 mm 5 mps 757 mmHg 54%
02:00 +19°C° 0 mm 4 mps 757 mmHg 54%
03:00 +19°C° 0 mm 4 mps 757 mmHg 53%
04:00 +19°C° 0 mm 4 mps 758 mmHg 51%
05:00 +19°C° 0 mm 3 mps 758 mmHg 50%
06:00 +19°C° 0 mm 3 mps 759 mmHg 48%
07:00 +20°C° 0 mm 3 mps 759 mmHg 45%
08:00 +21°C° 0 mm 4 mps 759 mmHg 42%
09:00 +22°C° 0 mm 4 mps 759 mmHg 38%
10:00 +23°C° 0 mm 5 mps 759 mmHg 37%
11:00 +25°C° 0 mm 5 mps 759 mmHg 35%
12:00 +26°C° 0 mm 5 mps 759 mmHg 33%
13:00 +26°C° 0 mm 5 mps 759 mmHg 32%
14:00 +26°C° 0 mm 5 mps 759 mmHg 31%
15:00 +27°C° 0 mm 5 mps 758 mmHg 30%
16:00 +25°C° 0 mm 4 mps 759 mmHg 33%
17:00 +23°C° 0 mm 4 mps 759 mmHg 36%
18:00 +22°C° 0 mm 3 mps 759 mmHg 39%
19:00 +21°C° 0 mm 3 mps 759 mmHg 41%
20:00 +20°C° 0 mm 4 mps 759 mmHg 43%
21:00 +19°C° 0 mm 4 mps 760 mmHg 46%
22:00 +18°C° 0 mm 3 mps 759 mmHg 49%
23:00 +18°C° 0 mm 3 mps 759 mmHg 52%

Tomorrow, 29 September, Tuesday

Time Temperature Precipitation Wind Pressure Humidity
00:00 +17°C° 0 mm 3 mps 759 mmHg 55%
01:00 +16°C° 0 mm 3 mps 759 mmHg 57%
02:00 +16°C° 0 mm 2 mps 759 mmHg 59%
03:00 +16°C° 0 mm 2 mps 759 mmHg 61%
04:00 +16°C° 0 mm 2 mps 759 mmHg 61%
05:00 +15°C° 0 mm 1 mps 759 mmHg 62%
06:00 +15°C° 0 mm 1 mps 759 mmHg 63%
07:00 +17°C° 0 mm 2 mps 759 mmHg 56%
08:00 +19°C° 0 mm 2 mps 759 mmHg 50%
09:00 +21°C° 0 mm 3 mps 759 mmHg 43%
10:00 +22°C° 0 mm 3 mps 758 mmHg 40%
11:00 +24°C° 0 mm 3 mps 758 mmHg 37%
12:00 +25°C° 0 mm 4 mps 757 mmHg 33%
13:00 +26°C° 0 mm 4 mps 757 mmHg 32%
14:00 +26°C° 0 mm 3 mps 756 mmHg 32%
15:00 +27°C° 0 mm 3 mps 756 mmHg 31%
16:00 +25°C° 0 mm 3 mps 756 mmHg 33%
17:00 +24°C° 0 mm 3 mps 756 mmHg 36%
18:00 +23°C° 0 mm 2 mps 755 mmHg 38%
19:00 +21°C° 0 mm 3 mps 755 mmHg 42%
20:00 +20°C° 0 mm 3 mps 756 mmHg 45%
21:00 +19°C° 0 mm 4 mps 756 mmHg 48%
22:00 +18°C° 0 mm 4 mps 755 mmHg 52%
23:00 +17°C° 0 mm 3 mps 755 mmHg 56%

Day after tomorrow, 30 September, Wednesday

Time Temperature Precipitation Wind Pressure Humidity
00:00 +17°C° 0 mm 2 mps 755 mmHg 59%
01:00 +16°C° 0 mm 2 mps 754 mmHg 62%
02:00 +16°C° 0 mm 2 mps 754 mmHg 65%
03:00 +16°C° 0 mm 1 mps 754 mmHg 67%
04:00 +16°C° 0 mm 1 mps 754 mmHg 68%
05:00 +16°C° 0 mm 1 mps 753 mmHg 69%
06:00 +15°C° 0 mm 1 mps 753 mmHg 70%
07:00 +18°C° 0 mm 1 mps 753 mmHg 64%
08:00 +19°C° 0 mm 2 mps 753 mmHg 57%
09:00 +20°C° 0 mm 2 mps 753 mmHg 51%
10:00 +22°C° 0 mm 3 mps 752 mmHg 47%
11:00 +24°C° 0 mm 3 mps 752 mmHg 43%
12:00 +25°C° 0 mm 3 mps 752 mmHg 39%
13:00 +26°C° 0 mm 3 mps 751 mmHg 39%
14:00 +26°C° 0 mm 3 mps 751 mmHg 38%
15:00 +26°C° 0 mm 3 mps 751 mmHg 37%
16:00 +25°C° 0 mm 3 mps 751 mmHg 40%
17:00 +23°C° 0 mm 4 mps 751 mmHg 44%
18:00 +22°C° 0 mm 4 mps 751 mmHg 47%
19:00 +21°C° 0 mm 4 mps 752 mmHg 51%
20:00 +20°C° 0 mm 4 mps 752 mmHg 54%
21:00 +20°C° 0 mm 4 mps 753 mmHg 57%
22:00 +19°C° 0 mm 4 mps 752 mmHg 58%
23:00 +19°C° 0 mm 3 mps 752 mmHg 60%

1 October, Thursday

Time Temperature Precipitation Wind Pressure Humidity
00:00 +18°C° 0 mm 3 mps 752 mmHg 61%
01:00 +18°C° 0 mm 3 mps 752 mmHg 63%
02:00 +17°C° 0 mm 2 mps 752 mmHg 64%
03:00 +17°C° 0 mm 2 mps 752 mmHg 66%
04:00 +16°C° 0 mm 2 mps 752 mmHg 67%
05:00 +16°C° 0 mm 2 mps 752 mmHg 68%
06:00 +16°C° 0 mm 2 mps 753 mmHg 68%
07:00 +18°C° 0 mm 2 mps 753 mmHg 62%
08:00 +19°C° 0 mm 3 mps 753 mmHg 55%
09:00 +21°C° 0 mm 4 mps 753 mmHg 48%
10:00 +22°C° 0 mm 4 mps 752 mmHg 46%
11:00 +23°C° 0 mm 4 mps 752 mmHg 43%
12:00 +25°C° 0 mm 4 mps 751 mmHg 40%
13:00 +26°C° 0 mm 3 mps 751 mmHg 38%
14:00 +26°C° 0 mm 3 mps 751 mmHg 37%
15:00 +27°C° 0 mm 3 mps 750 mmHg 35%
16:00 +26°C° 0 mm 3 mps 751 mmHg 38%
17:00 +24°C° 0 mm 2 mps 751 mmHg 41%
18:00 +23°C° 0 mm 2 mps 751 mmHg 44%
19:00 +21°C° 0 mm 3 mps 751 mmHg 48%
20:00 +21°C° 0 mm 4 mps 752 mmHg 51%
21:00 +20°C° 0 mm 5 mps 752 mmHg 55%
22:00 +19°C° 0 mm 4 mps 752 mmHg 58%
23:00 +18°C° 0 mm 3 mps 752 mmHg 60%

2 October, Friday

Time Temperature Precipitation Wind Pressure Humidity
00:00 +18°C° 0 mm 2 mps 752 mmHg 63%
01:00 +18°C° 0 mm 1 mps 752 mmHg 65%
02:00 +18°C° 0 mm 1 mps 752 mmHg 67%
03:00 +18°C° 0 mm 1 mps 751 mmHg 69%
04:00 +15°C° 0 mm 0 mps 751 mmHg 70%
05:00 +15°C° 0 mm 0 mps 752 mmHg 71%
06:00 +15°C° 0 mm 0 mps 752 mmHg 72%
07:00 +17°C° 0 mm 0 mps 752 mmHg 66%
08:00 +20°C° 0 mm 1 mps 752 mmHg 60%
09:00 +22°C° 0 mm 1 mps 752 mmHg 53%
10:00 +23°C° 0 mm 1 mps 751 mmHg 50%
11:00 +25°C° 0 mm 2 mps 751 mmHg 46%
12:00 +26°C° 0 mm 2 mps 751 mmHg 43%
13:00 +27°C° 0 mm 2 mps 750 mmHg 41%
14:00 +27°C° 0 mm 2 mps 750 mmHg 39%
15:00 +28°C° 0 mm 2 mps 750 mmHg 37%
16:00 +27°C° 0 mm 2 mps 750 mmHg 41%
17:00 +26°C° 0 mm 2 mps 750 mmHg 44%
18:00 +24°C° 0 mm 2 mps 751 mmHg 48%
19:00 +24°C° 0.1 mm 3 mps 751 mmHg 51%
20:00 +22°C° 0.1 mm 3 mps 752 mmHg 54%
21:00 +22°C° 0.1 mm 3 mps 752 mmHg 57%
22:00 +21°C° 0.1 mm 3 mps 752 mmHg 62%
23:00 +21°C° 0.1 mm 2 mps 752 mmHg 66%

3 October, Saturday

Time Temperature Precipitation Wind Pressure Humidity
00:00 +20°C° 0.1 mm 2 mps 752 mmHg 70%
01:00 +21°C° 0.2 mm 1 mps 752 mmHg 73%
02:00 +20°C° 0.2 mm 1 mps 752 mmHg 75%
03:00 +20°C° 0.2 mm 1 mps 752 mmHg 77%
04:00 +18°C° 0 mm 0 mps 752 mmHg 79%
05:00 +17°C° 0 mm 0 mps 753 mmHg 80%
06:00 +17°C° 0 mm 0 mps 753 mmHg 81%
07:00 +18°C° 0 mm 0 mps 753 mmHg 75%
08:00 +22°C° 0 mm 1 mps 753 mmHg 68%
09:00 +23°C° 0 mm 1 mps 753 mmHg 62%
10:00 +25°C° 0 mm 2 mps 753 mmHg 57%
11:00 +26°C° 0 mm 2 mps 752 mmHg 53%
12:00 +27°C° 0 mm 3 mps 752 mmHg 49%
13:00 +28°C° 0.1 mm 3 mps 752 mmHg 47%
14:00 +28°C° 0.1 mm 3 mps 752 mmHg 46%
15:00 +29°C° 0.1 mm 3 mps 751 mmHg 44%
16:00 +27°C° 0.1 mm 3 mps 752 mmHg 49%
17:00 +26°C° 0.1 mm 3 mps 752 mmHg 54%
18:00 +24°C° 0.1 mm 3 mps 753 mmHg 60%
19:00 +23°C° 0.1 mm 4 mps 753 mmHg 60%
20:00 +22°C° 0.1 mm 4 mps 754 mmHg 61%
21:00 +21°C° 0.1 mm 4 mps 754 mmHg 61%
22:00 +20°C° 0 mm 4 mps 754 mmHg 65%
23:00 +20°C° 0 mm 3 mps 754 mmHg 68%
Show more